FW5165 Weather Reports


Display with metric or nautical units.
time (UTC)temp
F
wind
direction
speed
MPH
gust
MPH
rain 1hr
in
rain 24hr
in
rain mn
in
humidity
%
barometer
mb
20260902224519 73 211 7.0 10.0 0.00 0.00 0.00 55 1017.6
20260902224020 73 232 5.0 9.0 0.00 0.00 0.00 55 1017.7
20260902223518 73 198 5.0 10.0 0.00 0.00 0.00 56 1017.6
20260902223018 73 229 4.0 11.0 0.00 0.00 0.00 56 1017.7
20260902222518 73 216 6.0 16.0 0.00 0.00 0.00 56 1017.6
20260902222020 73 216 7.0 12.0 0.00 0.00 0.00 56 1017.7
20260902221623 73 223 6.0 13.0 0.00 0.00 0.00 55 1017.8
20260902221020 73 188 7.0 14.0 0.00 0.00 0.00 56 1017.8
20260902220516 73 194 7.0 13.0 0.00 0.00 0.00 56 1017.8
20260902220015 73 207 4.0 10.0 0.00 0.00 0.00 57 1018.0
20260902215516 73 195 5.0 12.0 0.00 0.00 0.00 57 1017.9
20260902215016 73 175 8.0 12.0 0.00 0.00 0.00 58 1018.0
20260902214514 73 233 4.0 11.0 0.00 0.00 0.00 59 1018.2
20260902214014 73 202 6.0 11.0 0.00 0.00 0.00 59 1018.3
20260902213513 72 236 2.0 12.0 0.00 0.00 0.00 61 1018.3
20260902213018 72 265 6.0 14.0 0.00 0.00 0.00 60 1018.5
20260902212513 72 229 7.0 13.0 0.00 0.00 0.00 60 1018.4
20260902212014 72 211 3.0 11.0 0.00 0.00 0.00 60 1018.4
20260902211512 72 202 6.0 16.0 0.00 0.00 0.00 60 1018.5
20260902211012 72 205 11.0 16.0 0.00 0.00 0.00 59 1018.4
20260902210513 73 193 7.0 10.0 0.00 0.00 0.00 58 1018.5
20260902210013 73 360 4.0 7.0 0.00 0.00 0.00 59 1018.4
20260902205510 72 360 2.0 5.0 0.00 0.00 0.00 60 1018.5
20260902205009 71 360 1.0 3.0 0.00 0.00 0.00 61 1018.5
20260902204510 71 360 1.0 3.0 0.00 0.00 0.00 62 1018.6
20260902204006 70 251 0.0 6.0 0.00 0.00 0.00 62 1018.7
20260902203506 70 248 3.0 7.0 0.00 0.00 0.00 63 1018.6
20260902203007 70 360 0.0 4.0 0.00 0.00 0.00 63 1018.8
20260902202506 70 189 1.0 6.0 0.00 0.00 0.00 64 1018.7
20260902202007 70 200 3.0 9.0 0.00 0.00 0.00 63 1018.8
20260902201506 70 188 5.0 10.0 0.00 0.00 0.00 63 1018.8
20260902201009 70 215 4.0 8.0 0.00 0.00 0.00 64 1018.9
20260902200508 70 242 5.0 8.0 0.00 0.00 0.00 63 1019.0
20260902200004 70 228 1.0 9.0 0.00 0.00 0.00 63 1019.0
20260902195506 69 245 6.0 9.0 0.00 0.00 0.00 65 1019.0
20260902195002 69 264 4.0 9.0 0.00 0.00 0.00 64 1019.0
20260902194501 69 212 6.0 9.0 0.00 0.00 0.00 65 1019.0
20260902194100 69 239 3.0 10.0 0.00 0.00 0.00 67 1019.0
20260902193603 69 264 5.0 10.0 0.00 0.00 0.00 66 1019.0
20260902193100 68 360 4.0 8.0 0.00 0.00 0.00 66 1019.0
20260902192559 68 263 5.0 8.0 0.00 0.00 0.00 67 1019.2
20260902192059 68 263 5.0 9.0 0.00 0.00 0.00 67 1019.3
20260902191605 68 267 6.0 9.0 0.00 0.00 0.00 67 1019.3
20260902191058 68 360 5.0 7.0 0.00 0.00 0.00 66 1019.4
20260902190601 68 360 2.0 7.0 0.00 0.00 0.00 67 1019.5
20260902190058 68 360 3.0 8.0 0.00 0.00 0.00 67 1019.5
20260902185558 68 360 3.0 8.0 0.00 0.00 0.00 67 1019.6
20260902185100 68 186 3.0 8.0 0.00 0.00 0.00 67 1019.5
20260902184556 68 198 2.0 8.0 0.00 0.00 0.00 68 1019.5
20260902184055 68 360 6.0 8.0 0.00 0.00 0.00 68 1019.5
20260902183556 68 360 3.0 10.0 0.00 0.00 0.00 68 1019.5
20260902183135 68 360 5.0 10.0 0.00 0.00 0.00 68 1019.4
20260902182559 68 360 5.0 9.0 0.00 0.00 0.00 68 1019.4
20260902182055 68 360 5.0 11.0 0.00 0.00 0.00 67 1019.4
20260902181604 67 360 7.0 11.0 0.00 0.00 0.00 67 1019.4
20260902181055 68 360 6.0 9.0 0.00 0.00 0.00 67 1019.4
20260902180654 68 360 1.0 11.0 0.00 0.00 0.00 68 1019.5
20260902180054 68 229 7.0 11.0 0.00 0.00 0.00 68 1019.4
20260902175554 68 215 3.0 10.0 0.00 0.00 0.00 68 1019.4
20260902175052 68 211 5.0 11.0 0.00 0.00 0.00 68 1019.4
20260902174550 68 212 5.0 12.0 0.00 0.00 0.00 68 1019.4
20260902174049 68 134 8.0 12.0 0.00 0.00 0.00 68 1019.4
20260902173548 67 152 4.0 8.0 0.00 0.00 0.00 67 1019.4
20260902173055 67 171 4.0 6.0 0.00 0.00 0.00 69 1019.5
20260902172545 66 360 3.0 8.0 0.00 0.00 0.00 69 1019.4
20260902172045 66 229 4.0 13.0 0.00 0.00 0.00 68 1019.5
20260902171544 66 360 7.0 13.0 0.00 0.00 0.00 70 1019.4
20260902171043 66 360 6.0 13.0 0.00 0.00 0.00 69 1019.3
20260902170543 66 360 8.0 13.0 0.00 0.00 0.00 69 1019.1
20260902170045 66 360 8.0 13.0 0.00 0.00 0.00 69 1019.1
20260902165543 66 360 3.0 10.0 0.00 0.00 0.00 69 1019.2
20260902165042 66 360 7.0 12.0 0.00 0.00 0.00 68 1019.1
20260902164555 66 360 7.0 13.0 0.00 0.00 0.00 69 1019.2
20260902164041 66 360 8.0 13.0 0.00 0.00 0.00 69 1019.1
20260902163541 65 360 6.0 12.0 0.00 0.00 0.00 68 1018.9
20260902163041 65 360 7.0 14.0 0.00 0.00 0.00 68 1018.8
20260902162540 66 200 7.0 11.0 0.00 0.00 0.00 66 1018.7
20260902162039 65 178 6.0 13.0 0.00 0.00 0.00 67 1018.7
20260902161539 65 176 7.0 13.0 0.00 0.00 0.00 68 1018.9
20260902161038 65 184 5.0 11.0 0.00 0.00 0.00 69 1018.9
20260902160536 64 202 7.0 12.0 0.00 0.00 0.00 68 1018.9
20260902160045 64 161 8.0 12.0 0.00 0.00 0.00 68 1019.0
20260902155535 64 155 5.0 10.0 0.00 0.00 0.00 69 1019.1
20260902155034 63 180 6.0 9.0 0.00 0.00 0.00 69 1019.1
20260902154546 63 360 5.0 9.0 0.00 0.00 0.00 70 1019.0
20260902154036 63 360 4.0 8.0 0.00 0.00 0.00 70 1019.1
20260902153531 62 157 3.0 8.0 0.00 0.00 0.00 71 1019.1
20260902153029 62 160 5.0 8.0 0.00 0.00 0.00 71 1019.0
20260902152528 61 148 3.0 6.0 0.00 0.00 0.00 73 1019.0
20260902152029 60 121 1.0 6.0 0.00 0.00 0.00 74 1018.8
20260902151532 60 140 0.0 1.0 0.00 0.00 0.00 74 1018.8
20260902151024 60 140 0.0 1.0 0.00 0.00 0.00 74 1018.8
20260902150524 60 136 0.0 1.0 0.00 0.00 0.00 75 1018.9
20260902150025 60 135 0.0 1.0 0.00 0.00 0.00 75 1018.9
20260902145525 60 135 0.0 2.0 0.00 0.00 0.00 75 1018.8
20260902145026 59 165 0.0 2.0 0.00 0.00 0.00 75 1018.8
20260902144522 59 157 0.0 4.0 0.00 0.00 0.00 76 1018.8
20260902144022 59 140 0.0 5.0 0.00 0.00 0.00 76 1018.7
20260902143522 59 121 2.0 5.0 0.00 0.00 0.00 76 1018.7
20260902143024 59 120 0.0 2.0 0.00 0.00 0.00 76 1018.7
20260902142522 59 114 1.0 2.0 0.00 0.00 0.00 76 1018.5
20260902142022 59 115 0.0 2.0 0.00 0.00 0.00 77 1018.6
20260902141528 59 114 0.0 2.0 0.00 0.00 0.00 77 1018.7
20260902141023 58 121 0.0 2.0 0.00 0.00 0.00 77 1018.7
20260902140521 58 122 0.0 4.0 0.00 0.00 0.00 77 1018.7
20260902140121 58 123 1.0 5.0 0.00 0.00 0.00 77 1018.7
20260902135521 58 124 2.0 5.0 0.00 0.00 0.00 77 1018.6
20260902135020 58 109 1.0 3.0 0.00 0.00 0.00 78 1018.6
20260902134522 58 112 1.0 4.0 0.00 0.00 0.00 78 1018.6
20260902134019 58 103 1.0 4.0 0.00 0.00 0.00 78 1018.5
20260902133520 58 103 0.0 4.0 0.00 0.00 0.00 78 1018.5
20260902133019 58 103 1.0 4.0 0.00 0.00 0.00 78 1018.4
20260902132520 58 104 1.0 5.0 0.00 0.00 0.00 78 1018.3
20260902132018 58 106 2.0 5.0 0.00 0.00 0.00 78 1018.2
20260902131518 58 107 2.0 5.0 0.00 0.00 0.00 78 1018.2
20260902131019 58 109 2.0 5.0 0.00 0.00 0.00 78 1018.2
20260902130518 58 101 2.0 5.0 0.00 0.00 0.00 79 1018.1
20260902130029 58 119 1.0 4.0 0.00 0.00 0.00 79 1018.2
20260902125518 58 136 0.0 4.0 0.00 0.00 0.00 79 1018.2
20260902125017 58 140 1.0 4.0 0.00 0.00 0.00 79 1018.2
20260902124516 58 141 1.0 3.0 0.00 0.00 0.00 79 1018.2
20260902124015 58 142 0.0 2.0 0.00 0.00 0.00 79 1018.3
20260902123515 58 142 0.0 4.0 0.00 0.00 0.00 79 1018.2
20260902123026 58 142 0.0 4.0 0.00 0.00 0.00 79 1018.1
20260902122515 58 144 1.0 4.0 0.00 0.00 0.00 79 1018.2
20260902122017 58 149 1.0 3.0 0.00 0.00 0.00 79 1018.2
20260902121514 58 153 0.0 4.0 0.00 0.00 0.00 79 1018.2
20260902121017 58 153 0.0 4.0 0.00 0.00 0.00 79 1018.2
20260902120516 58 159 1.0 4.0 0.00 0.00 0.00 79 1018.2
20260902120013 58 161 1.0 4.0 0.00 0.00 0.00 79 1018.3
20260902115513 58 161 0.0 2.0 0.00 0.00 0.00 78 1018.3
20260902115015 58 161 0.0 2.0 0.00 0.00 0.00 78 1018.3
20260902114518 59 163 0.0 4.0 0.00 0.00 0.00 78 1018.3
20260902114010 59 163 0.0 4.0 0.00 0.00 0.00 78 1018.3
20260902113510 59 157 0.0 7.0 0.00 0.00 0.00 78 1018.3
20260902113011 59 147 0.0 8.0 0.00 0.00 0.00 78 1018.2
20260902112511 59 154 3.0 8.0 0.00 0.00 0.00 78 1018.2
20260902112011 59 165 4.0 8.0 0.00 0.00 0.00 78 1018.2
20260902111510 59 142 2.0 7.0 0.00 0.00 0.00 78 1018.1
20260902111010 59 161 3.0 8.0 0.00 0.00 0.00 78 1018.1
20260902110510 59 151 4.0 8.0 0.00 0.00 0.00 77 1018.2
20260902110010 59 161 3.0 9.0 0.00 0.00 0.00 77 1018.1
20260902105509 59 148 4.0 8.0 0.00 0.00 0.00 77 1018.2
20260902105012 59 154 4.0 8.0 0.00 0.00 0.00 77 1018.2
20260902104508 59 156 5.0 8.0 0.00 0.00 0.00 77 1018.2
20260902104006 59 136 5.0 8.0 0.00 0.00 0.00 77 1018.3
20260902103610 59 141 5.0 8.0 0.00 0.00 0.00 77 1018.4
20260902103006 59 162 2.0 8.0 0.00 0.00 0.00 77 1018.3
20260902102506 59 153 3.0 7.0 0.00 0.00 0.00 77 1018.3
20260902102005 59 148 1.0 6.0 0.00 0.00 0.00 77 1018.3
20260902101505 59 157 1.0 9.0 0.00 0.00 0.00 77 1018.5
20260902101007 59 157 2.0 8.0 0.00 0.00 0.00 77 1018.5
20260902100505 59 141 4.0 8.0 0.00 0.00 0.00 77 1018.5
20260902100005 59 161 1.0 10.0 0.00 0.00 0.00 77 1018.5
20260902095505 59 161 4.0 10.0 0.00 0.00 0.00 77 1018.4
20260902095003 59 179 0.0 6.0 0.00 0.00 0.00 77 1018.3
20260902094502 59 152 1.0 9.0 0.00 0.00 0.00 78 1018.4
20260902094002 59 152 4.0 9.0 0.00 0.00 0.00 78 1018.4
20260902093502 59 153 3.0 8.0 0.00 0.00 0.00 78 1018.4
20260902093001 59 158 1.0 8.0 0.00 0.00 0.00 78 1018.3
20260902092502 59 154 3.0 9.0 0.00 0.00 0.00 78 1018.4
20260902092100 59 156 4.0 9.0 0.00 0.00 0.00 78 1018.5
20260902091602 59 153 2.0 6.0 0.00 0.00 0.00 78 1018.5
20260902091059 59 150 2.0 7.0 0.00 0.00 0.00 78 1018.4
20260902090601 59 151 3.0 7.0 0.00 0.00 0.00 78 1018.4
20260902090058 58 147 3.0 9.0 0.00 0.00 0.00 77 1018.4
20260902085557 58 157 3.0 9.0 0.00 0.00 0.00 77 1018.3
20260902085056 59 143 2.0 8.0 0.00 0.00 0.00 77 1018.3
20260902084556 59 153 1.0 7.0 0.00 0.00 0.00 76 1018.3
20260902084056 59 167 2.0 9.0 0.00 0.00 0.00 76 1018.3
20260902083555 59 178 2.0 9.0 0.00 0.00 0.00 76 1018.2
20260902083055 59 136 0.0 6.0 0.00 0.00 0.00 76 1018.2
20260902082555 59 156 0.0 6.0 0.00 0.00 0.00 75 1018.3
20260902082055 59 169 0.0 6.0 0.00 0.00 0.00 75 1018.3
20260902081554 59 156 0.0 7.0 0.00 0.00 0.00 75 1018.3
20260902081057 59 165 1.0 7.0 0.00 0.00 0.00 75 1018.2
20260902080553 59 151 3.0 7.0 0.00 0.00 0.00 75 1018.2
20260902080056 59 155 3.0 8.0 0.00 0.00 0.00 75 1018.2
20260902075551 59 159 4.0 10.0 0.00 0.00 0.00 74 1018.1
20260902075053 59 148 5.0 10.0 0.00 0.00 0.00 75 1018.1
20260902074554 59 157 6.0 10.0 0.00 0.00 0.00 74 1017.9
20260902074048 59 151 6.0 10.0 0.00 0.00 0.00 74 1017.9
20260902073548 59 143 4.0 7.0 0.00 0.00 0.00 74 1017.9
20260902073052 59 151 1.0 9.0 0.00 0.00 0.00 74 1017.9
20260902072547 59 168 3.0 10.0 0.00 0.00 0.00 74 1017.8
20260902072047 60 154 0.0 7.0 0.00 0.00 0.00 74 1017.7
20260902071547 60 117 3.0 8.0 0.00 0.00 0.00 74 1017.7
20260902071046 60 149 2.0 10.0 0.00 0.00 0.00 74 1017.7
20260902070546 60 159 5.0 10.0 0.00 0.00 0.00 74 1017.7
20260902070044 60 154 5.0 9.0 0.00 0.00 0.00 73 1017.7
20260902065544 60 164 5.0 10.0 0.00 0.00 0.00 73 1017.9
20260902065045 60 155 6.0 9.0 0.00 0.00 0.00 73 1017.9
20260902064546 60 155 3.0 11.0 0.00 0.00 0.00 72 1017.8
20260902064043 60 150 6.0 11.0 0.00 0.00 0.00 72 1017.9
20260902063544 61 157 5.0 11.0 0.00 0.00 0.00 72 1018.0
20260902063048 61 150 5.0 12.0 0.00 0.00 0.00 72 1018.0
20260902062543 61 144 5.0 13.0 0.00 0.00 0.00 72 1017.8
20260902062042 61 152 4.0 13.0 0.00 0.00 0.00 72 1018.0
20260902061543 61 155 6.0 11.0 0.00 0.00 0.00 72 1018.1
20260902061044 61 161 6.0 10.0 0.00 0.00 0.00 72 1018.1
20260902060542 61 146 5.0 10.0 0.00 0.00 0.00 71 1018.1
20260902060042 61 153 3.0 8.0 0.00 0.00 0.00 71 1018.1
20260902055542 61 152 3.0 8.0 0.00 0.00 0.00 71 1018.1
20260902055042 61 157 1.0 7.0 0.00 0.00 0.00 71 1018.1
20260902054543 62 149 2.0 9.0 0.00 0.00 0.00 70 1018.1
20260902054040 62 157 3.0 11.0 0.00 0.00 0.00 70 1018.1
20260902053542 62 154 7.0 11.0 0.00 0.00 0.00 70 1017.9
20260902053040 62 151 5.0 10.0 0.00 0.00 0.00 70 1017.8
20260902052540 62 180 3.0 8.0 0.00 0.00 0.00 69 1017.8
20260902052039 62 146 1.0 8.0 0.00 0.00 0.00 69 1017.8
20260902051540 62 157 4.0 8.0 0.00 0.00 0.00 68 1017.8
20260902051040 62 150 2.0 8.0 0.00 0.00 0.00 68 1017.9
20260902050540 62 164 3.0 7.0 0.00 0.00 0.00 68 1017.9
20260902050040 63 162 4.0 7.0 0.00 0.00 0.00 67 1017.9
20260902045542 63 155 5.0 9.0 0.00 0.00 0.00 67 1017.9
20260902045038 63 148 5.0 9.0 0.00 0.00 0.00 67 1017.9
20260902044539 63 156 5.0 7.0 0.00 0.00 0.00 66 1018.0
20260902044039 63 165 5.0 7.0 0.00 0.00 0.00 65 1017.9
20260902043539 63 170 2.0 6.0 0.00 0.00 0.00 65 1017.7
20260902043045 64 183 2.0 7.0 0.00 0.00 0.00 64 1017.6
20260902042538 64 180 3.0 9.0 0.00 0.00 0.00 64 1017.6
20260902042038 64 169 5.0 8.0 0.00 0.00 0.00 64 1017.5
20260902041540 64 190 5.0 9.0 0.00 0.00 0.00 63 1017.5
20260902041037 64 173 5.0 8.0 0.00 0.00 0.00 63 1017.5
20260902040538 64 159 4.0 8.0 0.00 0.00 0.00 62 1017.3
20260902040038 64 168 5.0 8.0 0.00 0.00 0.00 62 1017.2
20260902035537 65 150 2.0 6.0 0.00 0.00 0.00 61 1017.2
20260902035037 65 180 3.0 8.0 0.00 0.00 0.00 60 1017.1
20260902034538 65 163 3.0 8.0 0.00 0.00 0.00 60 1016.9
20260902034036 65 184 1.0 6.0 0.00 0.00 0.00 59 1016.8
20260902033536 66 185 2.0 7.0 0.00 0.00 0.00 59 1016.8
20260902033043 66 173 4.0 7.0 0.00 0.00 0.00 58 1016.7
20260902032539 66 144 3.0 7.0 0.00 0.00 0.00 58 1016.7
20260902032036 66 360 0.0 6.0 0.00 0.00 0.00 58 1016.5
20260902031536 66 360 3.0 8.0 0.00 0.00 0.00 57 1016.5
20260902031036 67 360 5.0 8.0 0.00 0.00 0.00 57 1016.4
20260902030535 67 360 2.0 5.0 0.00 0.00 0.00 57 1016.3
20260902030044 67 360 3.0 8.0 0.00 0.00 0.00 57 1016.2
20260902025536 67 360 5.0 8.0 0.00 0.00 0.00 56 1016.1
20260902025035 67 360 6.0 9.0 0.00 0.00 0.00 56 1016.1
20260902024534 68 216 5.0 9.0 0.00 0.00 0.00 55 1015.9
20260902024034 68 360 5.0 11.0 0.00 0.00 0.00 55 1015.9
20260902023534 68 219 7.0 11.0 0.00 0.00 0.00 55 1015.9
20260902023042 68 197 5.0 11.0 0.00 0.00 0.00 55 1015.9
20260902022534 68 230 5.0 11.0 0.00 0.00 0.00 55 1015.8
20260902022033 68 254 5.0 14.0 0.00 0.00 0.00 54 1015.8
20260902021542 69 206 8.0 14.0 0.00 0.00 0.00 54 1015.7
20260902021033 69 216 7.0 14.0 0.00 0.00 0.00 53 1015.7
20260902020534 69 227 8.0 12.0 0.00 0.00 0.00 52 1015.7
20260902020035 69 360 6.0 14.0 0.00 0.00 0.00 51 1015.7
20260902015533 70 221 9.0 14.0 0.00 0.00 0.00 51 1015.5
20260902015036 70 360 6.0 13.0 0.00 0.00 0.00 50 1015.5
20260902014532 71 360 7.0 13.0 0.00 0.00 0.00 49 1015.4
20260902014032 71 220 6.0 13.0 0.00 0.00 0.00 49 1015.4
20260902013536 71 208 9.0 13.0 0.00 0.00 0.00 48 1015.4
20260902013032 72 213 8.0 14.0 0.00 0.00 0.00 48 1015.4
20260902012531 72 217 8.0 14.0 0.00 0.00 0.00 47 1015.4
20260902012031 72 218 7.0 13.0 0.00 0.00 0.00 47 1015.4
20260902011532 72 233 8.0 12.0 0.00 0.00 0.00 47 1015.3
20260902011032 73 224 7.0 15.0 0.00 0.00 0.00 47 1015.4
20260902010532 72 182 8.0 15.0 0.00 0.00 0.00 46 1015.4
20260902010031 73 200 8.0 15.0 0.00 0.00 0.00 45 1015.5
20260902005531 73 213 7.0 12.0 0.00 0.00 0.00 45 1015.4
20260902005031 72 201 8.0 13.0 0.00 0.00 0.00 45 1015.4
20260902004531 73 194 9.0 14.0 0.00 0.00 0.00 45 1015.4
20260902004030 73 180 8.0 14.0 0.00 0.00 0.00 45 1015.4
20260902003530 73 211 11.0 15.0 0.00 0.00 0.00 44 1015.5
20260902003030 73 213 9.0 15.0 0.00 0.00 0.00 44 1015.5
20260902002532 73 225 9.0 13.0 0.00 0.00 0.00 44 1015.4
20260902002035 74 192 6.0 14.0 0.00 0.00 0.00 46 1015.5
20260902001529 74 183 7.0 16.0 0.00 0.00 0.00 46 1015.5
20260902001031 73 174 9.0 18.0 0.00 0.00 0.00 47 1015.6
20260902000528 74 207 11.0 18.0 0.00 0.00 0.00 46 1015.6
20260902000029 74 213 7.0 14.0 0.00 0.00 0.00 46 1015.6
20260901235528 73 214 5.0 13.0 0.00 0.00 0.00 46 1015.6
20260901235027 74 210 9.0 14.0 0.00 0.00 0.00 46 1015.7
20260901234526 73 167 8.0 15.0 0.00 0.00 0.00 46 1015.6
20260901234027 73 205 10.0 16.0 0.00 0.00 0.00 47 1015.7
20260901233526 73 182 9.0 14.0 0.00 0.00 0.00 48 1015.6
20260901233025 73 213 8.0 16.0 0.00 0.00 0.00 49 1015.6
20260901232525 73 154 9.0 16.0 0.00 0.00 0.00 47 1015.7
20260901232024 73 218 9.0 15.0 0.00 0.00 0.00 48 1015.7
20260901231524 73 173 8.0 15.0 0.00 0.00 0.00 50 1015.8
20260901231024 72 272 8.0 13.0 0.00 0.00 0.00 51 1015.7
20260901230523 72 200 8.0 14.0 0.00 0.00 0.00 50 1015.8
20260901230033 72 224 8.0 15.0 0.00 0.00 0.00 51 1015.9
20260901225524 73 225 9.0 15.0 0.00 0.00 0.00 50 1016.0
20260901225021 73 214 9.0 18.0 0.00 0.00 0.00 49 1015.9